Время (UTC), дата Ветер
(°,м/с) 
Видим.   Явления Облачность Т
(°С)
Тd
(°С)
f(%) Тe
(°С)
Pmin
(гПа)
dP
(гПа)
Po
(мм)
O2
(г/м3)
Тmin Tmax R s Состояние
почвы
00 01.05.11 200 (Ю) 10 км    9/6 1000 м средняя 
[Sc|Ac trans]
+12.5 +9.4 81 +12  1011  0.5  756  289           
03 01.05.11 240 (ЮЗ) 10 км    9/9 1000 м 
[Sc]
+11.4 +9.3 87 +12  1010.8  0.5  755  291           
06 01.05.11 210 (ЮЗ) 10 км    6/4 600 м верхняя 
[Ci fib]
+14.9 +9.6 71 +15  1012  1.2  756  287  +11.4         
09 01.05.11 250 (З) 10 км    6/6 1000 м 
[Cu med, cong]
+18.2 +9.6 57 +19  1011.7  -0.2  756  284           
12 01.05.11 310 (СЗ) 10 км    5/5 1000 м кучево-дожд. 
[Cb cap]
+19.7 +10.1 54 +22  1011  -0.7  756  282           
15 01.05.11 020 (С) 10 км    8/4 1000 м кучево-дожд., средняя, верхняя 
[Cb cap|Ac trans|Ci fib]
+18.1 +11 63 +22  1011.3  0.3  756  284    +20.2       
18 01.05.11 010 (С) 10 км    10/8 1000 м кучево-дожд., средняя, верхняя 
[Cb cap|Ac trans|Ci fib]
+15.6 +10.8 73 +19  1012.5  1.2  757  286    +20.2       
21 01.05.11 330 (СЗ) 10 км    9/9 1000 м кучево-дожд. 
[Cb cap]
+14 +10.3 78 +16  1012.5  0.1  757  288           
00 02.05.11 340 (С) 10 км    10/6 1000 м кучево-дожд., верхняя 
[Cb cap|Ci fib]
+11.2 +9.4 89 +12  1012.9  0.4  757  291           
03 02.05.11 тихо ()   10 км    10/8 600 м кучево-дожд., средняя 
[Cb cap|Ac und]
+11 +9.5 90 +11  1012.9  757  292           
06 02.05.11 040 (СВ) 10 км    10/10 300 м кучево-дожд. 
[Cb cap]
+12.2 +10.4 89 +15  1012.8  0.1  757  290  +11         
09 02.05.11 060 (СВ) 10 км    9/9 300 м кучево-дожд. 
[Cb cap]
+15.2 +10.9 75 +19  1012  -0.8  756  287           
12 02.05.11 030 (СВ) 10 км    8/8 1000 м кучево-дожд. 
[Cb cap]
+19.8 +12.1 61 +25  1010.4  -1.5  755  281           
15 02.05.11 010 (С) 10 км    1/0 верхняя 
[Ci fib]
+20.1 +11.4 57 +23  1009.3  -1.1  754  281    +20.8       
18 02.05.11 тихо ()   10 км    ясно 
+15.4 +11.4 77 +18  1010.3  755  286    +20.8       
21 02.05.11 тихо ()   10 км    ясно 
+13.2 +10.3 83 +15  1010.3  0.1  755  288           
00 03.05.11 тихо ()   10 км    ясно 
+11.3 +9.3 87 +11  1009.7  -0.7  755  290           
03 03.05.11 тихо ()   10 км    9/9 600 м кучево-дожд. 
[Cb cap]
+12.5 +10.1 85 +14  1009.7  -0.1  755  289           
06 03.05.11 тихо ()   10 км  {ливн. осадки}  9/6 1000 м средняя 
[Sc|Ac trans]
+16.8 +11 69 +19  1010.6  0.9  755  285  +11.2         
09 03.05.11 190 (Ю) 10 км    8/3 1000 м средняя, верхняя 
[Ac cast|Ci fib]
+21.9 +8 41 +22  1010.6  0.1  755  280           
12 03.05.11 200 (Ю) 10 км    9/8 1000 м кучево-дожд., средняя 
[Cb cap|Ac trans]
+21 +9.8 49 +22  1010.3  -0.3  755  281           
15 03.05.11 220 (ЮЗ) 10 км    9/8 1000 м кучево-дожд., средняя 
[Cb cap|Ac trans]
+19.8 +8.6 48 +21  1009.5  -0.8  755  282    +22.4       
18 03.05.11 270 (З) 10 км    9/3 1500 м средняя 
[Sc|Ac trans]
+17.7 +7.7 52 +19  1010.5  0.9  755  284    +22.4       
21 03.05.11 тихо ()   10 км    ясно 
+13.8 +11.8 88 +17  1009.8  -0.7  755  287           
00 04.05.11 тихо ()   4000 м  дымка  10/0 средняя 
[Ac und]
+12.5 +11.4 93 +15  1008.6  -1.2  754  288           
03 04.05.11 тихо ()   2000 м  дымка  6/0 верхняя 
[Ci]
+10.9 +10.2 95 +12  1008.3  -0.3  754  290           
06 04.05.11 050 (СВ) 10 км    5/0 верхняя 
[Ci]
+18.7 +10.8 60 +22  1007.9  -0.3  753  282  +10.9         
09 04.05.11 040 (СВ) 10 км    8/3 1500 м верхняя 
[Cu med, cong|Cc]
+23.9 +10.8 44 +26  1006.8  -1  753  277           
12 04.05.11 200 (Ю) 10 км  в посл. час ливневой дождь  10/10 1000 м кучево-дожд. 
[Cb cap]
+21.4 +10.5 50 +23  1006.3  -0.6  752  279           
15 04.05.11 140 (ЮВ) 10 км    9/8 1000 м средняя 
[Sc|Ac trans]
+20 +12.6 62 +25  1005.5  -0.8  752  280    +24.7       
18 04.05.11 100 (В) 10 км    8/4 1000 м средняя 
[Sc|Ac trans]
+17.5 +13.2 76 +24  1006.2  0.7  752  282    +24.7       
21 04.05.11 040 (СВ) 10 км    9/8 1000 м средняя 
[Sc|Ac trans]
+16.2 +13.5 84 +24  1005.8  -0.4  752  283           
00 05.05.11 070 (В) 10 км    8/3 1000 м средняя, верхняя 
[Sc|Ac trans|Ci fib]
+15.1 +13.1 88 +22  1005.1  -0.7  751  284           
03 05.05.11 080 (В) 10 км    10/8 1000 м средняя 
[Sc|Ac und]
+14.5 +12.8 90 +21  1005.1  -0.7  751  285           
06 05.05.11 080 (В) 10 км  слаб. ливневой дождь  10/8 1000 м кучево-дожд., средняя 
[Cb cap|Ac und]
+16.2 +13.2 82 +24  1006.1  752  283  +14.4         
09 05.05.11 120 (ЮВ) 10 км  слаб. ливневой дождь  10/6 600 м кучево-дожд., средняя 
[Cb cap|Ac und]
+16.4 +14.6 89 +26  1006.9  0.7  752  283           
12 05.05.11 150 (ЮВ) 4000 м  слаб. ливневой дождь  10/10 300 м кучево-дожд. 
[Cb cap]
+17.1 +15.2 89 +28  1007.3  0.5  753  282           
15 05.05.11 200 (Ю) 10 км  в посл. час ливневой дождь  10/5 1000 м кучево-дожд. 
[Cb cap]
+17 +14.8 87 +26  1007.5  0.2  753  283    +17.5       
18 05.05.11 220 (ЮЗ) 4000 м  слаб. ливневой дождь  10/5 600 м кучево-дожд., средняя 
[Cb cap|Ac und]
+15.9 +14.3 90 +24  1009.6  755  284    +17.5     
21 05.05.11 210 (ЮЗ) 4000 м  слаб. дождь{ливн. осадки}  10/10 300 м 
[Frnb|Ns]
+14.7 +13.7 94 +21  1009.8  0.2  755  286           
00 06.05.11 210 (ЮЗ) 10 км  в посл. час дождь  10/10 300 м 
[St|Ns]
+13.9 +12.4 91 +18  1009.8  0.2  755  287           
03 06.05.11 210 (ЮЗ) 4000 м  слаб. дождь  10/6 1000 м средняя 
[Sc|As op]
+13.6 +12.1 91 +18  1010.3  0.5  755  287           
06 06.05.11 210 (ЮЗ) 10 км  в посл. час дождь  10/10 300 м 
[Frnb]
+14.5 +12.2 86 +18  1010.9  0.6  755  287  +13.6       
09 06.05.11 220 (ЮЗ) 10 км  слаб. дождь  10/10 300 м 
[Frnb]
+14.3 +11.8 85 +17  1012.2  1.3  756  287           
12 06.05.11 230 (ЮЗ) 10 км  {дождь}  10/10 600 м 
[Sc]
+15.3 +11.3 77 +18  1013.1  0.9  757  287           
15 06.05.11 270 (З) 4000 м  слаб. дождь  10/10 300 м 
[Frnb|Ns]
+13.7 +12.6 93 +19  1015  1.8  759  289    +15.5       
18 06.05.11 270 (З) 4000 м  слаб. дождь  10/10 300 м 
[Frnb|Ns]
+11.8 +10.8 94 +13  1017.6  2.6  761  292    +15.5     
21 06.05.11 290 (З) 4000 м  слаб. дождь  10/10 300 м 
[Frnb|Ns]
+10.9 +9.9 93 +12  1018.1  0.4  761  293           
00 07.05.11 280 (З) 10 км  в посл. час дождь  10/4 600 м средняя 
[Sc|Ac und]
+10.3 +8.2 87 +10  1019.1  0.9  762  294           
03 07.05.11 280 (З) 10 км    9/6 1000 м средняя 
[Sc|Ac trans]
+9.1 +5.7 79 +9  1020.3  1.2  762  296           
06 07.05.11 280 (З) 10 км    9/6 1000 м средняя 
[Sc|Ac trans]
+11.4 +5.1 65 +11  1021.6  1.4  763  295  +9.1       
09 07.05.11 300 (СЗ) н/о    н/о 
+13.2 +4.5 56 +13  1022.1  1.4  764  293           
12 07.05.11 280 (З) 10 км    9/9 1000 м 
[Sc diur, vesp]
+14.5 +2.1 43 +15  1022.3  0.2  764  292           
15 07.05.11 310 (СЗ) 10 км    9/9 1000 м 
[Sc diur, vesp]
+13.6 +0.4 40 +14  1022.7  0.4  764  293    +15.2       
18 07.05.11 300 (СЗ) 10 км    8/8 1000 м 
[Sc]
+11 +2.1 54 +12  1023  0.2  764  296    +15.2  0.3     
21 07.05.11 330 (СЗ) 10 км    8/8 1000 м 
[Sc]
+9.9 +2.7 61 +11  1022  -1  764  297           
00 08.05.11 тихо ()   10 км    6/6 1000 м 
[Sc]
+9.2 +4.3 71 +9  1021.2  -0.8  763  297           
03 08.05.11 тихо ()   10 км    9/9 1000 м средняя 
[Sc|Ac trans]
+9.2 +5.5 78 +9  1020.2  -0.9  762  296           
06 08.05.11 060 (СВ) 10 км    8/3 1000 м верхняя 
[Cu hum|Cc]
+14.8 +6.7 58 +16  1019.1  -1.1  762  290  +8.6         
09 08.05.11 030 (СВ) 10 км    9/4 1000 м средняя 
[Cu Sc|Ac As]
+16.3 +5.7 49 +18  1017.9  -1.1  761  288           
12 08.05.11 030 (СВ) 10 км    10/8 1000 м кучево-дожд., средняя 
[Cb cap|Ac und]
+15.4 +7.4 59 +16  1018  0.1  761  289           
15 08.05.11 360 (С) 10 км    10/6 1000 м кучево-дожд., средняя 
[Cb cap|Ac und]
+13.9 +8.4 69 +15  1018.2  0.2  761  290    +16.6       
18 08.05.11 220 (ЮЗ) 10 км  {ливн. осадки}  10/10 600 м 
[Sc]
+11.7 +8.7 82 +11  1019.3  762  293    +16.6       
21 08.05.11 230 (ЮЗ) 10 км    10/10 1000 м 
[Sc]
+10.7 +7.3 80 +11  1019.3  762  294           
00 09.05.11 250 (З) 4000 м  слаб. ливневой дождь  10/10 600 м кучево-дожд. 
[Cb cap]
+9.7 +7.2 84 +11  1019.2  0.1  762  295           
03 09.05.11 тихо ()   4000 м  слаб. дождь{ливн. осадки}  10/10 300 м 
[Frnb|Ns]
+9.7 +8 89 +10  1019.1  0.1  762  295           
06 09.05.11 230 (ЮЗ) 10 км  {дождь}  9/9 1000 м 
[Sc]
+12 +8.2 78 +12  1019.3  0.2  762  293  +9.5    0.3     
09 09.05.11 250 (З) 10 км    9/8 600 м кучево-дожд., средняя 
[Cb cap|Ac trans]
+14.1 +8 67 +15  1019.3  0.2  762  291           
12 09.05.11 310 (СЗ) 10 км    9/6 1000 м кучево-дожд., средняя 
[Cb cap|Ac trans]
+14.9 +9.3 69 +15  1019.4  0.1  762  289           
15 09.05.11 320 (СЗ) 10 км    8/3 1500 м средняя, верхняя 
[Cu med, cong|Ac trans|Ci fib]
+15 +9.4 69 +16  1019  -0.4  762  289    +15.6       
18 09.05.11 210 (ЮЗ) 10 км    8/0 верхняя 
[Ci fib]
+11.8 +9.1 84 +13  1019.4  0.3  762  293    +15.6       
21 09.05.11 270 (З) 10 км    5/0 верхняя 
[Ci fib]
+10.8 +9.4 91 +12  1018.9  -0.5  761  293           
00 10.05.11 260 (З) 10 км    8/4 1000 м средняя, верхняя 
[Sc|Ac trans|Ci fib]
+10.1 +8.6 90 +11  1019  0.1  761  294           
03 10.05.11 280 (З) 10 км    10/0 средняя, верхняя 
[Ac trans|Ci fib]
+10.1 +8.6 90 +11  1018.6  -0.4  761  294           
06 10.05.11 230 (ЮЗ) 4000 м  слаб. дождь  10/8 300 м средняя 
[Frnb|As op]
+11.2 +9.3 88 +11  1019  0.4  762  293  +9.3         
09 10.05.11 240 (ЮЗ) 10 км  {дождь}  10/6 600 м средняя 
[Sc|As trans]
+13.1 +9.7 80 +14  1019.1  -0.1  762  291           
12 10.05.11 280 (З) 10 км  {дождь}  10/5 600 м кучево-дожд., средняя, верхняя 
[Cb cap|Ac trans|Ci fib]
+15.9 +8 59 +17  1018.6  -0.4  761  289           
15 10.05.11 280 (З) 10 км  {ливн. осадки}  9/8 600 м кучево-дожд., средняя 
[Cb cap|Ac trans]
+12.1 +9.6 85 +12  1018.9  0.2  761  292    +16.8       
18 10.05.11 240 (ЮЗ) 10 км  {ливн. осадки}  5/5 600 м 
[Sc diur, vesp]
+11.4 +8.9 85 +13  1019.4  0.2  762  293    +16.8     
21 10.05.11 190 (Ю) 10 км    3/3 600 м 
[Sc]
+9.2 +7.1 87 +10  1019  -0.4  761  296           
00 11.05.11 150 (ЮВ) 10 км    3/0 средняя 
[Ac trans]
+8.2 +6.2 87 +9  1018.8  -0.2  761  297           
03 11.05.11 тихо ()   10 км    3/0 средняя 
[Ac trans]
+7.1 +6.1 93 +7  1018.4  -0.4  761  298           
06 11.05.11 110 (В) 10 км    3/1 1000 м верхняя 
[Cu hum|Ci fib]
+14 +7.3 64 +15  1018.4  761  290  +6.8         
09 11.05.11 030 (СВ) 10 км    6/6 1000 м 
[Cu hum]
+17.4 +8 54 +19  1017.6  -0.7  761  287           
12 11.05.11 080 (В) 10 км    8/5 1000 м средняя 
[Sc diur, vesp|Ac trans]
+18.7 +7.5 48 +20  1016.4  -1.2  760  285           
15 11.05.11 060 (СВ) 10 км    8/5 1000 м средняя 
[Sc diur, vesp|Ac trans]
+18.9 +7.3 47 +20  1014.7  -1.6  758  285    +19.8       
18 11.05.11 040 (СВ) 10 км    4/0 верхняя 
[Ci fib]
+14.8 +8.7 67 +15  1014.4  -0.4  758  288    +19.8       
21 11.05.11 030 (СВ) 10 км    10/0 верхняя 
[Cs]
+12.6 +9.1 79 +13  1013.1  -0.4  757  290           
00 12.05.11 060 (СВ) 10 км    9/4 1000 м средняя 
[Sc|Ac trans]
+12.5 +9.4 81 +13  1012.1  -0.9  756  290           
03 12.05.11 040 (СВ) 10 км    9/8 1000 м кучево-дожд., средняя 
[Cb cap|Ac trans]
+12.7 +9.6 81 +15  1011.3  -0.8  756  289           
06 12.05.11 070 (В) 10 км    10/10 1000 м кучево-дожд. 
[Cb cap]
+15.2 +10.4 73 +17  1010.7  -0.6  755  286  +11.9         
09 12.05.11 070 (В) 10 км    10/10 1000 м кучево-дожд. 
[Cb cap]
+16.4 +11.1 71 +19  1010.5  -0.2  755  285           
12 12.05.11 100 (В) 10 км  слаб. ливневой дождь  10/10 1000 м кучево-дожд. 
[Cb cap]
+15.6 +12.6 82 +21  1010.7  0.2  755  285           
15 12.05.11 060 (СВ) 10 км  в посл. час ливневой дождь  10/10 1000 м кучево-дожд. 
[Cb cap]
+14.1 +12.6 91 +20  1011.2  0.5  756  287    +17.2       
18 12.05.11 070 (В) 10 км  {ливн. осадки}  10/10 1000 м 
[Sc]
+13.3 +11.5 89 +16  1011.1  0.1  756  288    +17.2     
21 12.05.11 040 (СВ) 10 км  {дождь}  10/10 1000 м 
[Sc]
+12.5 +11.7 95 +17  1010.3  -0.8  755  289           
00 13.05.11 050 (СВ) 10 км  {дождь}  10/10 1000 м 
[]
+12.5 +11.3 92 +17  1009.5  -0.8  754  289           
03 13.05.11 040 (СВ) 4000 м  дымка  10/10 200 м 
[St]
+12.3 +11.2 93 +17  1009.1  -0.4  754  289           
06 13.05.11 060 (СВ) 10 км    10/10 600 м кучево-дожд. 
[Cb cap]
+14.2 +12.2 88 +19  1009.9  0.8  755  287  +12.3    0.3     
09 13.05.11 030 (СВ) 10 км    10/10 600 м кучево-дожд. 
[Cb cap]
+17.4 +12.5 73 +23  1010  0.1  755  284           
12 13.05.11 030 (СВ) 10 км    10/10 600 м кучево-дожд. 
[Cb cap]
+18 +12.9 72 +24  1010  755  283           
15 13.05.11 тихо ()   4000 м  слаб. ливневой дождь  10/10 600 м кучево-дожд. 
[Cb cap]
+15.2 +14.7 97 +23  1010.4  0.3  755  285    +18.6       
18 13.05.11 030 (СВ) 4000 м  слаб. ливневой дождь  10/10 600 м кучево-дожд. 
[Cb cap]
+15.4 +14.3 93 +24  1012.1  1.7  756  286    +18.6  10     
21 13.05.11 тихо ()   4000 м  слаб. ливневой дождь  10/10 300 м кучево-дожд. 
[Cb cap]
+14.1 +13.4 96 +20  1012.1  1.7  756  287           
00 14.05.11 270 (З) 4000 м  дымка{ливн. осадки}  10/10 300 м 
[Frnb|Ns]
+13.5 +12.6 94 +20  1012.3  0.2  757  288           
03 14.05.11 300 (СЗ) 0500 м  туман  ясно 
+13.2 +12.6 96 +19  1012.7  0.4  757  288           
06 14.05.11 340 (С) н/о    н/о 
+14.4 +13.5 94 +22  1013.5  0.8  757  287  +13.2       
09 14.05.11 170 (Ю) 10 км    10/10 600 м кучево-дожд. 
[Cb cap]
+17.5 +13.1 75 +24  1013.8  0.3  758  284           
12 14.05.11 190 (Ю) 10 км    9/9 600 м кучево-дожд. 
[Cb cap]
+20.6 +11.9 57 +24  1012.5  0.3  757  281           
15 14.05.11 010 (С) 10 км    10/6 600 м кучево-дожд., верхняя 
[Cb cap|Ci fib]
+16.9 +11.9 72 +22  1012.4  0.1  757  285    +20.7       
18 14.05.11 тихо ()   10 км    10/4 1000 м средняя 
[Sc|Ac trans]
+15.3 +13.2 87 +21  1013.9  1.5  758  286    +20.7       
21 14.05.11 290 (З) 10 км    10/4 1000 м средняя 
[Sc|Ac trans]
+15.3 +13.4 88 +23  1014.2  0.3  758  287           
00 15.05.11 300 (СЗ) 10 км    10/10 1000 м 
[Sc]
+13.9 +12.3 90 +19  1014  -0.2  758  288           
03 15.05.11 310 (СЗ) 10 км    9/9 1000 м 
[Sc]
+13.7 +12.1 90 +19  1014.1  -0.1  758  288           
06 15.05.11 250 (З) 10 км    10/10 600 м кучево-дожд. 
[Cb cap]
+16.5 +13 80 +23  1015  759  286  +13.2         
09 15.05.11 200 (Ю) 10 км  гроза без осадков  10/9 600 м кучево-дожд., верхняя 
[Cb cap|Ci fib]
+18.5 +13.1 71 +24  1014.7  758  284           
12 15.05.11 280 (З) 4000 м  гроза, ливневой дождь  10/10 300 м кучево-дожд. 
[Cb cap]
+14.5 +13.4 93 +22  1015.2  0.4  759  288           
15 15.05.11 270 (З) 10 км  в посл. час ливневой дождь{гроза}  8/4 600 м кучево-дожд., средняя, верхняя 
[Cb cap|Ac trans|Ci ing]
+18.6 +13.5 72 +26  1015.3  0.2  759  284    +18.8       
18 15.05.11 210 (ЮЗ) 10 км    9/9 1000 м кучево-дожд. 
[Cb cap]
+14.5 +12.4 87 +19  1017.1  1.7  760  288    +18.8  12     
21 15.05.11 220 (ЮЗ) 10 км    ясно 
+12.5 +10.6 88 +15  1017.9  0.8  761  291           
00 16.05.11 230 (ЮЗ) 10 км    ясно 
+11.8 +10.4 91 +14  1018.2  0.4  761  292           
03 16.05.11 230 (ЮЗ) 10 км    9/9 1000 м 
[Sc]
+12.9 +10.2 84 +14  1018.8  0.6  761  291           
06 16.05.11 230 (ЮЗ) 10 км    4/0 средняя 
[Ac trans]
+17.4 +11.4 68 +21  1019.6  0.8  762  287  +11.4         
09 16.05.11 230 (ЮЗ) 10 км    5/5 1000 м кучево-дожд. 
[Cb cap]
+19.4 +11.9 62 +23  1019.9  0.3  762  285           
12 16.05.11 210 (ЮЗ) 10 км    8/8 1000 м кучево-дожд. 
[Cb cap]
+20.9 +11.7 56 +24  1019.1  -0.7  762  283           
15 16.05.11 260 (З) 10 км    4/4 1000 м кучево-дожд. 
[Cb cap]
+21.2 +11.4 54 +24  1018.8  -0.3  761  283    +22.3       
18 16.05.11 тихо ()   10 км    3/0 средняя 
[Ac trans]
+15.7 +12.5 81 +20  1019.7  0.8  762  288    +22.3       
21 16.05.11 тихо ()   10 км    ясно 
+13.1 +11.9 92 +17  1020.2  0.4  762  291           
00 17.05.11 тихо ()   10 км    ясно 
+11.6 +10.9 96 +14  1020.8  0.6  763  293           
03 17.05.11 тихо ()   10 км    8/0 верхняя 
[Ci fib]
+12.3 +11.6 95 +15  1021.7  0.9  764  292           
06 17.05.11 110 (В) 10 км    3/3 1000 м 
[Cu hum]
+18.4 +13.2 72 +24  1022.5  0.9  764  286  +11.4         
09 17.05.11 110 (В) 10 км    3/3 1000 м 
[Cu hum]
+22.2 +13 56 +27  1021.8  -0.6  764  282           
12 17.05.11 050 (СВ) 10 км    3/3 1000 м 
[]
+24.7 +9.3 38 +25  1021.1  -0.7  763  280           
15 17.05.11 040 (СВ) 10 км    1/1 1000 м 
[Cu med, cong]
+24.2 +9.7 40 +25  1020.5  -0.5  763  281    +25.2       
18 17.05.11 040 (СВ) 10 км    ясно 
+19.9 +10.5 55 +22  1021.5  0.9  764  285    +25.2       
21 17.05.11 тихо ()   10 км    ясно 
+15.8 +11.8 77 +19  1021.6  764  289           
00 18.05.11 тихо ()   10 км    ясно 
+14 +11.1 83 +16  1021.1  763  290           
03 18.05.11 060 (СВ) 10 км    ясно 
+14.1 +11.1 82 +17  1021.7  0.6  764  291           
06 18.05.11 060 (СВ) 10 км    ясно 
+22 +12 53 +26  1021.8  0.2  764  283  +13.1         
09 18.05.11 060 (СВ) 10 км    ясно 
+24.9 +9.3 37 +25  1021.1  -0.7  763  280           
12 18.05.11 080 (В) 10 км    ясно 
+26.7 +7.5 30 +27  1019.8  -1.3  762  279           
15 18.05.11 050 (СВ) н/о    ясно 
+26 +8.1 32 +26  1018.6  -1.2  761  279    +27       
18 18.05.11 040 (СВ) 10 км    ясно 
+20.5 +12.9 62 +25  1018.8  0.2  761  283    +27       
21 18.05.11 060 (СВ) 10 км    4/0 верхняя 
[Ci fib]
+17.4 +12.3 72 +23  1018  -0.9  761  286           
00 19.05.11 060 (СВ) 10 км    6/0 верхняя 
[Ci fib]
+15.2 +12.2 82 +21  1017.1  -0.9  760  288           
03 19.05.11 050 (СВ) 10 км    4/0 верхняя 
[Ci fib]
+15.2 +12 81 +21  1016.6  -0.5  760  288           
06 19.05.11 070 (В) 10 км    6/0 средняя, верхняя 
[Ac trans|Ci fib]
+20.8 +12 57 +24  1016  -0.6  759  282  +14.1         
09 19.05.11 060 (СВ) 10 км    10/0 верхняя 
[Ci]
+24.4 +13 49 +30  1014.9  -1  759  278           
12 19.05.11 040 (СВ) 10 км    10/0 средняя, верхняя 
[Ac trans|Ci fib]
+27 +12 39 +31  1013.8  -1  758  276           
15 19.05.11 060 (СВ) 10 км    10/0 средняя, верхняя 
[Ac trans|Cs]
+24.7 +12.2 46 +29  1013.6  -0.2  758  278    +27.4       
18 19.05.11 050 (СВ) 10 км    10/0 средняя, верхняя 
[Ac trans|Ci fib]
+19.8 +13.4 67 +27  1014.1  0.5  758  282    +27.4       
21 19.05.11 050 (СВ) 10 км    10/3 1000 м средняя, верхняя 
[Sc|Ac trans|Ci fib]
+17.7 +12.3 71 +23  1014.8  0.6  758  285           
00 20.05.11 тихо ()   10 км    10/8 1000 м верхняя 
[Sc|Ci fib]
+16.6 +12.4 76 +21  1015  0.6  759  286           
03 20.05.11 060 (СВ) 10 км  в посл. час ливневой дождь  10/6 1000 м кучево-дожд., средняя, верхняя 
[Cb cap|Ac trans|Ci fib]
+16.1 +13 82 +22  1015.6  0.7  759  286           
06 20.05.11 080 (В) 10 км  {ливн. осадки}  9/5 1000 м средняя, верхняя 
[Sc|Ac trans|Ci fib]
+18.7 +12.2 66 +24  1016  0.4  759  284  +15.5         
09 20.05.11 060 (СВ) 10 км    9/8 1000 м кучево-дожд., средняя 
[Cb cap|Ac trans]
+19.9 +12.6 63 +26  1015.9  0.1  759  283           
12 20.05.11 090 (В) 10 км    9/6 1000 м кучево-дожд., средняя 
[Cb cap|Ac trans]
+19.9 +12.6 63 +26  1015.9  -0.7  759  283           
15 20.05.11 100 (В) 10 км    10/10 1000 м кучево-дожд. 
[Cb cap]
+19.3 +12.3 64 +24  1015.2  759  283    +22.1       
18 20.05.11 090 (В) 10 км    10/10 600 м кучево-дожд. 
[Cb cap]
+18.2 +11.6 65 +22  1015  -0.2  759  284    +22.1  0.3     
21 20.05.11 050 (СВ) 10 км  в посл. час ливневой дождь  10/10 1000 м кучево-дожд. 
[Cb cap]
+15.8 +14 89 +24  1015  0.1  759  286           
00 21.05.11 тихо ()   10 км  {ливн. осадки}  8/4 1000 м верхняя 
[Sc|Ci ing]
+15.2 +14.2 94 +22  1014.7  -0.3  758  287           
03 21.05.11 040 (СВ) 4000 м  дымка  8/5 600 м средняя, верхняя 
[St|Ac trans|Ci]
+14.8 +14 95 +23  1014.6  -0.1  758  287           
06 21.05.11 170 (Ю) 4000 м  дымка  10/10 300 м 
[Sc]
+17.2 +15.1 87 +28  1015  0.4  759  284  +14.7    0.5     
09 21.05.11 060 (СВ) 10 км    9/9 1000 м 
[Sc]
+22.6 +15.4 64 +32  1014  -1  758  279           
12 21.05.11 100 (В) 10 км    9/9 1000 м 
[Sc]
+24.2 +13.7 52 +30  1012.4  -1.6  757  277           
15 21.05.11 070 (В) 10 км  гроза без осадков  9/0 1000 м 
[Sc]
+23.4 +13.9 55 +30  1012  -0.4  756  278    +25       
18 21.05.11 040 (СВ) 10 км  {гроза}  8/8 1000 м 
[Sc]
+20 +15.6 76 +29  1012.9  0.9  757  281    +25       
21 21.05.11 050 (СВ) 10 км    ясно 
+16.9 +15.6 92 +27  1013.1  0.2  757  284           
00 22.05.11 тихо ()   10 км    10/10 1000 м 
[Sc]
+16.1 +14.8 92 +24  1013.2  757  285           
03 22.05.11 060 (СВ) 10 км    10/10 1000 м 
[Sc]
+16 +14.5 91 +25  1014.1  758  286           
06 22.05.11 тихо ()   10 км  в посл. час дождь  10/10 1000 м 
[Sc]
+18.7 +14.3 76 +26  1014.7  0.6  758  283  +15.5         
09 22.05.11 050 (СВ) 10 км    9/5 1000 м средняя 
[Sc|Ac trans]
+23.1 +12.8 52 +28  1015  0.4  759  279           
12 22.05.11 050 (СВ) 10 км    10/8 1000 м кучево-дожд., средняя 
[Cb cap|Ac und]
+22.4 +13.5 57 +28  1015.6  0.5  759  280           
15 22.05.11 060 (СВ) 10 км  {ливн. осадки}  9/8 1000 м средняя 
[Sc|Ac trans]
+20.5 +13.4 64 +26  1015.6  0.1  759  282    +23.3       
18 22.05.11 210 (ЮЗ) 10 км    10/10 1000 м 
[Sc]
+19.1 +13.8 71 +27  1016  0.4  759  283    +23.3       
21 22.05.11 160 (Ю) 10 км    10/10 1000 м 
[Sc]
+18.2 +15.2 83 +29  1016.4  0.4  760  284           
00 23.05.11 220 (ЮЗ) 10 км  {ливн. осадки}  10/10 1000 м 
[Sc]
+17 +15.1 89 +26  1016  -0.5  759  285           
03 23.05.11 270 (З) 10 км  слаб. ливневой дождь  10/10 1000 м 
[Sc]
+16.6 +14.3 86 +25  1016  759  285           
06 23.05.11 тихо ()   4000 м  слаб. ливневой дождь  10/10 1000 м 
[Sc]
+18.6 +15.8 84 +28  1016.4  0.5  760  283  +16.5    0.8     
09 23.05.11 280 (З) 10 км  {ливн. осадки}  6/1 1000 м 
[]
+23.5 +17.1 67 +36  1016.4  760  278           
12 23.05.11 310 (СЗ) 10 км  в посл. час гроза{ливн. осадки}  9/9 1000 м кучево-дожд. 
[Cb cap]
+25.5 +16.1 56 +36  1015.3  -1  759  276           
15 23.05.11 210 (ЮЗ) 4000 м  слаб. ливневой дождь{гроза}  10/10 1000 м кучево-дожд. 
[Cb cap]
+19.4 +16.2 82 +31  1016.4  760  282    +26.5       
18 23.05.11 240 (ЮЗ) 4000 м  слаб. ливневой дождь{гроза}  10/10 600 м кучево-дожд. 
[Cb cap]
+16.9 +15.6 92 +27  1018.3  1.8  761  285    +26.5     
21 23.05.11 тихо ()   10 км  {ливн. осадки}  8/0 средняя 
[As op]
+16.5 +15.2 92 +25  1018.3  761  286           
00 24.05.11 230 (ЮЗ) 10 км  {ливн. осадки}  8/3 1000 м средняя, верхняя 
[Sc|Ac trans|Ci fib]
+15.8 +15.1 96 +25  1018.8  0.5  761  287           
03 24.05.11 240 (ЮЗ) 4000 м  слаб. ливневой дождь  9/8 1000 м кучево-дожд., средняя 
[Cb cap|Ac trans]
+15.6 +14.7 94 +25  1019.6  0.8  762  287           
06 24.05.11 270 (З) 10 км    8/3 1000 м кучево-дожд., средняя, верхняя 
[Cb calv|Ac trans|Ci fib]
+20.9 +16.5 76 +32  1020.1  0.6  762  282  +15.4       
09 24.05.11 320 (СЗ) 10 км    5/3 1000 м средняя, верхняя 
[Cu med, cong|Ac trans|Ci fib]
+25.6 +14.9 52 +34  1020  762  278           
12 24.05.11 030 (СВ) 10 км    4/3 1000 м верхняя 
[Cu med, cong|Cc]
+28 +13.9 42 +34  1018.5  -1.4  761  276           
15 24.05.11 350 (С) 10 км    5/3 1000 м кучево-дожд., средняя, верхняя 
[Cb cap|Ac trans|Cc]
+26.1 +14.1 48 +33  1017.5  -1.1  761  277    +28.3       
18 24.05.11 050 (СВ) 10 км  гроза без осадков{ливн. осадки}  10/8 1000 м кучево-дожд., средняя 
[Cb cap|Ac und]
+19.6 +15.3 76 +30  1018.8  1.2  761  283    +28.3  0.3     
21 24.05.11 150 (ЮВ) 10 км  в посл. час ливневой дождь{гроза}  10/10 600 м кучево-дожд. 
[Cb cap]
+19.1 +14.3 74 +28  1018.6  -0.2  761  284           
00 25.05.11 350 (С) 10 км  {гроза, ливн. осадки}  10/4 1000 м средняя, верхняя 
[Sc|Ac trans|Ci fib]
+17.3 +14.2 82 +26  1017.7  -0.9  761  285           
03 25.05.11 тихо ()   10 км    8/5 1000 м средняя 
[Sc|Ac trans]
+18.4 +14 76 +25  1018  0.3  761  284           
06 25.05.11 150 (ЮВ) 10 км    9/3 1000 м средняя, верхняя 
[Sc|Ac trans|Cc]
+21.9 +15.2 66 +31  1018  761  281  +16.8    0.5     
09 25.05.11 060 (СВ) 10 км    8/0 средняя 
[Ac cast]
+25.7 +14.8 51 +34  1017.4  -0.6  760  277           
12 25.05.11 050 (СВ) 10 км    6/6 1000 м 
[Cu med, cong]
+28 +14.6 44 +36  1015.4  -1.9  759  274           
15 25.05.11 040 (СВ) 10 км    8/4 1000 м кучево-дожд., верхняя 
[Cb cap|Ci ing]
+25.7 +12.9 45 +31  1014.8  -0.6  759  277    +28.5       
18 25.05.11 080 (В) 10 км  зарница{гроза, ливн. осадки}  8/4 1000 м кучево-дожд., верхняя 
[Cb cap|Ci ing]
+18 +14.9 82 +27  1015.9  0.9  759  284    +28.5       
21 25.05.11 тихо ()   10 км    10/10 600 м кучево-дожд. 
[Cb cap]
+17.9 +14.9 83 +26  1016.2  0.3  759  284           
00 26.05.11 210 (ЮЗ) 10 км    8/8 1000 м 
[Sc]
+16.8 +14.5 86 +25  1015.7  -0.4  759  285           
03 26.05.11 210 (ЮЗ) 10 км    9/9 1000 м 
[Sc]
+17 +15 88 +26  1015.8  759  285           
06 26.05.11 250 (З) 10 км    8/6 1000 м кучево-дожд., средняя 
[Cb cap|Ac cast]
+22.7 +17.1 71 +35  1016  0.3  759  279  +16.5       
09 26.05.11 220 (ЮЗ) 4000 м  слаб. ливневой дождь  9/9 1000 м кучево-дожд. 
[Cb cap]
+21.7 +17.9 79 +35  1016.1  0.3  759  279           
12 26.05.11 160 (Ю) 4000 м  гроза, ливневой дождь  10/10 300 м кучево-дожд. 
[Cb cap]
+16.6 +16.1 97 +27  1017  0.9  760  285           
15 26.05.11 230 (ЮЗ) 10 км  {гроза, ливн. осадки}  9/8 1000 м кучево-дожд., средняя 
[Cb cap|Ac trans]
+19.3 +17.1 87 +32  1015.6  -1.3  759  282    +25.1       
18 26.05.11 290 (З) 10 км  {гроза, ливн. осадки}  8/0 средняя, верхняя 
[Ac trans|Ci fib]
+19.2 +16.7 85 +32  1016.7  1.1  760  282    +25.1  45     
21 26.05.11 360 (С) 10 км    8/0 средняя 
[Ac trans]
+17.5 +15.7 89 +28  1018.1  1.3  761  285           
00 27.05.11 020 (С) 10 км    9/5 1000 м средняя 
[Sc|Ac trans]
+16.3 +13.2 82 +22  1019.3  1.2  762  287           
03 27.05.11 020 (С) 10 км    9/8 1000 м средняя 
[Sc|Ac trans]
+15 +12.1 83 +20  1020.8  1.5  763  289           
06 27.05.11 040 (СВ) 10 км    4/1 1000 м верхняя 
[Sc|Ci fib]
+19.3 +10.4 56 +21  1021.9  1.1  764  286  +14.8       
09 27.05.11 070 (В) 10 км    3/3 1000 м 
[Cu hum]
+21.9 +10.9 50 +24  1021.3  -0.5  763  283           
12 27.05.11 080 (В) 10 км    3/3 1000 м 
[Cu hum]
+22.9 +8.2 39 +23  1020  -0.5  762  282           
15 27.05.11 070 (В) 10 км    3/0 средняя 
[Ac trans]
+22.7 +9.1 42 +23  1018.7  -1.2  761  282    +23.3       
18 27.05.11 050 (СВ) 10 км    ясно 
+18.1 +9.8 58 +21  1018.5  -0.3  761  286    +23.3       
21 27.05.11 050 (СВ) 10 км    ясно 
+15.3 +8.8 65 +17  1017.9  -0.6  761  289           
00 28.05.11 060 (СВ) 10 км    ясно 
+13.2 +8.4 73 +14  1017.8  0.1  761  291           
03 28.05.11 060 (СВ) 10 км    ясно 
+13.8 +8.4 70 +15  1018  0.2  761  290           
06 28.05.11 070 (В) 10 км    ясно 
+20.4 +10.5 53 +22  1017.2  -0.7  760  283  +11.8         
09 28.05.11 060 (СВ) 10 км    ясно 
+24 +11.7 46 +27  1015.5  -1.7  759  279           
12 28.05.11 050 (СВ) 10 км    5/0 верхняя 
[Ci]
+26.2 +8.8 33 +26  1013.8  -1.7  758  277           
15 28.05.11 060 (СВ) 10 км    9/0 верхняя 
[Ci]
+25.1 +10.4 40 +27  1012.4  -1.4  757  277    +26.8       
18 28.05.11 050 (СВ) 10 км    9/0 средняя, верхняя 
[Ac trans|Ci]
+20.4 +9.4 49 +21  1012.9  0.4  757  282    +26.8       
21 28.05.11 060 (СВ) 10 км    3/0 верхняя 
[Ci fib]
+18.6 +9.8 57 +21  1012.7  -0.2  757  284           
00 29.05.11 070 (В) 10 км    3/0 средняя 
[Ac trans]
+16.8 +10.1 65 +19  1012.5  -0.3  757  285           
03 29.05.11 070 (В) 10 км    9/9 1000 м 
[Sc]
+16.5 +11 70 +20  1012.5  0.1  757  286           
06 29.05.11 070 (В) 10 км    9/0 средняя, верхняя 
[Ac trans|Ci fib]
+21.5 +12.8 58 +26  1013.3  0.8  757  280  +16         
09 29.05.11 080 (В) 10 км    9/0 средняя, верхняя 
[Ac cast|Ci sp]
+25.2 +12.1 44 +29  1013.8  0.5  758  277           
12 29.05.11 080 (В) 10 км    10/5 1000 м кучево-дожд., средняя, верхняя 
[Cb cap|Ac cast|Ci fib]
+25.2 +12.2 44 +29  1013.5  -0.3  758  277           
15 29.05.11 070 (В) 10 км    10/4 1000 м средняя, верхняя 
[Sc|Ac cast|Cc]
+25.4 +12.8 46 +30  1012.8  -0.7  757  277    +26.6       
18 29.05.11 060 (СВ) 10 км    8/0 верхняя 
[Ci fib]
+21.5 +12.7 57 +26  1013.7  0.8  758  281    +26.6       
21 29.05.11 050 (СВ) 10 км    ясно 
+18.2 +13.3 73 +26  1013.7  0.1  758  284           
00 30.05.11 тихо ()   10 км    ясно 
+15.8 +12.7 82 +21  1013.8  -0.1  758  286           
03 30.05.11 040 (СВ) 10 км    10/0 средняя, верхняя 
[Ac trans|Ci]
+17.2 +13 76 +24  1014.6  0.8  758  285           
06 30.05.11 100 (В) 10 км    10/8 1000 м средняя 
[Sc|Ac As]
+18.5 +13.9 75 +25  1016.5  1.9  760  284  +14.9         
09 30.05.11 060 (СВ) 10 км  в посл. час ливневой дождь  9/8 1000 м средняя 
[Sc|Ac trans]
+21.6 +16.2 71 +32  1017.9  1.4  761  281           
12 30.05.11 040 (СВ) 10 км  {ливн. осадки}  8/3 1000 м средняя, верхняя 
[Cu hum|Ac trans|Ci ing]
+27.2 +15.4 48 +36  1017.4  -0.4  761  276           
15 30.05.11 070 (В) 10 км    8/0 средняя, верхняя 
[Ac cast|Cc]
+26.4 +14.2 47 +33  1016.9  -0.4  760  276    +27.4       
18 30.05.11 060 (СВ) 10 км    3/0 средняя, верхняя 
[Ac cast|Ci fib]
+22.3 +14.9 63 +30  1017.5  0.6  761  280    +27.4       
21 30.05.11 040 (СВ) 10 км    ясно 
+19.3 +14.5 74 +28  1017  -0.5  760  283           
00 31.05.11 070 (В) 10 км    3/0 верхняя 
[Ci fib]
+17.2 +13.8 80 +25  1016.8  -0.2  760  285           
03 31.05.11 070 (В) 10 км    4/1 1000 м средняя, верхняя 
[Sc|Ac trans|Cc]
+16.9 +13.2 79 +23  1016.9  -0.1  760  286           
06 31.05.11 070 (В) 10 км    3/0 средняя 
[Ac cast]
+21.4 +14.9 66 +30  1017.2  0.3  760  281  +16.4         
09 31.05.11 050 (СВ) 10 км    4/0 средняя, верхняя 
[Ac cast|Ci fib]
+25.7 +16.5 57 +37  1016.6  -0.5  760  276           
12 31.05.11 050 (СВ) 10 км    3/0 верхняя 
[Ci fib]
+28.6 +16.3 47 +39  1015.8  -0.5  759  273           
15 31.05.11 080 (В) 10 км    ясно 
+27.6 +13.5 42 +34  1014.7  -1.1  758  275    +28.9       
18 31.05.11 060 (СВ) 10 км    ясно 
+23.5 +15.2 60 +32  1014.7  758  278    +28.9       
21 31.05.11 050 (СВ) 10 км    ясно 
+20.2 +15 72 +29  1014.1  -0.7  758  281           
00 01.06.11 тихо ()   10 км    5/0 верхняя 
[Ci fib]
+17.9 +14 78 +25  1014.2  0.2  758  284           
03 01.06.11 120 (ЮВ) 10 км    8/0 средняя, верхняя 
[Ac cast|Ci fib]
+19.5 +14.8 74 +29  1015.1  0.8  759  282           
Время (UTC), дата Ветер
(°,м/с) 
Видим.   Явления Облачность Т
(°С)
Тd
(°С)
f(%) Тe
(°С)
Pmin
(гПа)
dP
(гПа)
Po
(мм)
O2
(г/м3)
Тmin Tmax R s Состояние
почвы